KC8QDR-1 Weather Reports


time (UTC)temp
F
wind
direction
speed
knots
gust
knots
rain 1hr
in
rain 24hr
in
rain mn
in
humidity
%
barometer
mb
20260504013844 51 191 1.7 3.5 0.00 0.00 0.00 66 1017.2
20260504012844 52 206 0.9 1.7 0.00 0.00 0.00 63 1017.3
20260504011844 53 193 2.6 2.6 0.00 0.00 0.00 57 1017.4
20260504010844 54 190 0.9 4.3 0.00 0.00 0.00 55 1017.4
20260504005844 55 194 0.9 4.3 0.00 0.00 0.00 53 1017.3
20260504004846 55 183 0.0 5.2 0.00 0.00 0.00 53 1017.4
20260504003844 56 218 3.5 7.8 0.00 0.00 0.00 51 1017.5
20260504002844 56 206 1.7 4.3 0.00 0.00 0.00 51 1017.9
20260504001844 56 182 3.5 7.0 0.00 0.00 0.00 51 1018.2
20260504000844 57 190 0.0 4.3 0.00 0.00 0.00 49 1018.2
20260503235844 57 196 4.3 6.1 0.00 0.00 0.00 48 1018.2
20260503234844 57 196 2.6 7.8 0.00 0.00 0.00 49 1018.1
20260503233844 58 196 1.7 6.1 0.00 0.00 0.00 47 1018.3
20260503232844 58 180 1.7 9.6 0.00 0.00 0.00 46 1018.2
20260503231844 58 193 0.0 5.2 0.00 0.00 0.00 46 1018.2
20260503230844 58 210 3.5 7.8 0.00 0.00 0.00 45 1018.3
20260503225844 58 215 4.3 8.7 0.00 0.00 0.00 46 1018.2
20260503224844 59 232 5.2 5.2 0.00 0.00 0.00 44 1018.2
20260503224125 59 189 4.3 12.2 0.00 0.00 0.00 45 1018.2
20260503223917 59 189 4.3 12.2 0.00 0.00 0.00 45 1018.2
20260503223844 59 189 4.3 12.2 0.00 0.00 0.00 45 1018.2
20260503222844 59 230 4.3 10.4 0.00 0.00 0.00 45 1018.2
20260503221845 59 179 4.3 7.8 0.00 0.00 0.00 45 1018.2
20260503220845 60 204 0.9 7.8 0.00 0.00 0.00 45 1018.1
20260503215844 59 191 1.7 7.8 0.00 0.00 0.00 43 1018.0
20260503214844 60 221 2.6 7.0 0.00 0.00 0.00 44 1018.1
20260503213846 60 0 0.0 7.0 0.00 0.00 0.00 42 1017.9
20260503212844 60 227 0.0 7.8 0.00 0.00 0.00 44 1017.8
20260503211844 61 214 5.2 10.4 0.00 0.00 0.00 42 1017.7
20260503210844 61 223 7.0 9.6 0.00 0.00 0.00 41 1017.5
20260503205844 62 217 6.1 10.4 0.00 0.00 0.00 43 1017.5
20260503204844 62 149 7.0 10.4 0.00 0.00 0.00 39 1017.5
20260503203844 62 0 0.0 8.7 0.00 0.00 0.00 42 1017.4
20260503202844 62 0 0.0 0.0 0.00 0.00 0.00 42 1017.5
20260503201844 61 0 0.0 0.0 0.00 0.00 0.00 42 1017.5
20260503200847 61 0 0.0 0.0 0.00 0.00 0.00 38 1017.8
20260503195844 61 0 0.0 0.0 0.00 0.00 0.00 42 1018.2
20260503194844 62 0 0.0 0.0 0.00 0.00 0.00 40 1018.3
20260503193844 61 0 0.0 0.0 0.00 0.00 0.00 44 1018.8
20260503192844 61 0 0.0 0.0 0.00 0.00 0.00 45 1019.2
20260503191845 62 0 0.0 0.0 0.00 0.00 0.00 43 1019.6
20260503190844 60 0 0.0 0.0 0.00 0.00 0.00 39 1019.8
20260503185844 62 0 0.0 0.0 0.00 0.00 0.00 41 1020.0
20260503184844 61 0 0.0 0.0 0.00 0.00 0.00 42 1020.1
20260503183847 62 0 0.0 0.0 0.00 0.00 0.00 40 1020.2
20260503182844 61 0 0.0 0.0 0.00 0.00 0.00 41 1020.1
20260503181844 61 0 0.0 0.0 0.00 0.00 0.00 46 1020.2
20260503180844 60 0 0.0 0.0 0.00 0.00 0.00 48 1020.3
20260503175844 60 0 0.0 0.0 0.00 0.00 0.00 43 1020.4
20260503174844 61 0 0.0 0.0 0.00 0.00 0.00 45 1020.5
20260503173844 60 0 0.0 0.0 0.00 0.00 0.00 45 1020.7
20260503172844 60 0 0.0 0.0 0.00 0.00 0.00 45 1020.8
20260503171845 59 0 0.0 0.0 0.00 0.00 0.00 44 1020.9
20260503170844 59 0 0.0 0.0 0.00 0.00 0.00 43 1021.0
20260503150846 55 303 4.3 8.7 0.00 0.00 0.00 44 1021.7
20260503130844 49 230 6.1 6.1 0.00 0.01 0.00 58 1021.8
20260503080845 32 0 0.0 0.0 0.00 0.12 0.00 97 1020.6
20260503072845 32 0 0.0 2.6 0.00 0.12 0.00 96 1020.4
20260503071845 33 0 0.0 2.6 0.00 0.12 0.00 96 1020.4
20260503070845 33 0 0.0 0.0 0.00 0.12 0.00 96 1020.3
20260503054844 36 0 0.0 0.0 0.00 0.13 0.00 94 1020.3
20260503053844 37 0 0.0 0.0 0.00 0.13 0.00 93 1020.3
20260503052845 37 0 0.0 0.0 0.00 0.13 0.00 93 1020.4
20260503052114 38 0 0.0 0.0 0.00 0.13 0.00 92 1020.5
20260503051844 38 0 0.0 0.0 0.00 0.13 0.00 92 1020.5
20260503050846 38 0 0.0 0.0 0.00 0.13 0.00 92 1020.6
20260503045844 39 0 0.0 0.0 0.00 0.13 0.00 92 1020.7
20260503044844 39 0 0.0 0.0 0.00 0.13 0.00 92 1020.8
20260503043844 39 0 0.0 0.0 0.00 0.13 0.00 92 1020.8
20260503042845 39 0 0.0 0.0 0.00 0.13 0.00 91 1020.9
20260503041844 39 0 0.0 0.0 0.00 0.13 0.00 92 1021.0
20260503041037 39 0 0.0 0.0 0.00 0.13 0.00 92 1021.1
20260503040844 39 0 0.0 0.0 0.00 0.13 0.00 92 1021.1
20260503035847 39 0 0.0 0.0 0.00 0.13 0.13 92 1021.1
20260503034844 39 0 0.0 0.0 0.00 0.13 0.13 92 1021.1
20260503033844 39 0 0.0 0.0 0.00 0.13 0.13 91 1021.2
20260503032844 39 0 0.0 0.0 0.00 0.13 0.13 89 1021.3
20260503031844 39 0 0.0 0.0 0.00 0.13 0.13 90 1021.5
20260503030847 39 0 0.0 0.0 0.00 0.13 0.13 89 1021.5
20260503025844 40 0 0.0 0.0 0.00 0.13 0.13 89 1021.6
20260503024844 39 0 0.0 0.0 0.00 0.13 0.13 89 1021.7
20260503023845 40 0 0.0 0.0 0.00 0.13 0.13 89 1021.9
20260503022845 40 0 0.0 0.0 0.00 0.13 0.13 88 1022.0
20260503021844 40 0 0.0 0.0 0.00 0.13 0.13 88 1022.1
20260503020844 40 0 0.0 0.0 0.00 0.13 0.13 87 1022.4
20260503020033 40 0 0.0 0.0 0.00 0.13 0.13 87 1022.3
20260503015844 40 0 0.0 0.0 0.00 0.13 0.13 87 1022.3
20260503014844 40 0 0.0 0.0 0.00 0.13 0.13 84 1022.3